Flag for Belgium Weather past 2 weeks in Eupen, Belgium

Now
59 °F

Scattered clouds.


Feels Like: 59 °F
Forecast: 54 / 65 °F
Wind: 3 mph from Southwest

Location: Spa / La Sauveniere

Current Time: Aug 29, 2014 at 10:17:05 AM

Latest Report: Aug 29, 2014 at 9:00 AM


Visibility: 8 mi

Pressure: 30.03 "Hg

Humidity: 88%

Dew point: 55 °F

Location of EupenLocation

Historic Weather in Eupen — Graph

°F

Eupen temperature yesterday

Maximum temperature yesterday: 65 °F (at 6:00 PM)
Minimum temperature yesterday: 54 °F (at 4:00 AM)
Average temperature yesterday: 60 °F

Past Weeks' High & Low Weather Summary

 TemperatureHumidityPressure
High65 °F (Aug 28, 6:00 PM)100% (Aug 16, 12:00 AM)30.16 "Hg (Aug 16, 12:00 AM)
Low44 °F (Aug 20, 6:00 AM)52% (Aug 18, 3:00 PM)29.62 "Hg (Aug 26, 5:00 AM)
Average54 °F85%29.96 "Hg
* Reported Aug 14 9:00 AM — Aug 29 9:00 AM, Eupen, Weather by CustomWeather, © 2014

Note: Actual official high and low records may vary slightly from our data, if they occured in-between our weather recording intervals... More about our weather records

Advertising

Eupen weather history for previous 24 hours

 ConditionsComfort  
Time TempWeatherWind HumidityBarometerVisibility
9:00 AM
Aug 29
59 °FScattered clouds.3 mph88%30.03 "Hg8 mi
8:00 AM57 °FOvercast.5 mph94%30.02 "Hg6 mi
7:00 AM55 °FOvercast.3 mph94%30.02 "Hg7 mi
6:00 AM55 °FClear.3 mph95%30.02 "Hg7 mi
5:00 AM54 °FClear.2 mph97%30.02 "Hg7 mi
4:00 AM56 °FClear.2 mph94%30.02 "Hg7 mi
3:00 AM56 °FClear.2 mph94%30.02 "Hg9 mi
2:00 AM57 °FOvercast.2 mph95%30.01 "Hg7 mi
1:00 AM58 °FOvercast.2 mph97%30.02 "HgN/A
12:00 AM58 °FLow clouds.3 mph98%30.01 "Hg6 mi
11:00 PM
Aug 28
60 °FLight rain. Low clouds.3 mph98%30.00 "Hg2 mi
10:00 PM63 °FOvercast.5 mph92%29.97 "Hg11 mi
9:00 PM62 °FOvercast.3 mph91%29.96 "Hg4 mi
8:00 PM64 °FScattered clouds.5 mph85%29.95 "Hg9 mi
7:00 PM65 °FPartly sunny.5 mph80%29.96 "Hg9 mi
6:00 PM65 °FOvercast.5 mph81%29.96 "Hg12 mi
5:00 PM64 °FOvercast.5 mph83%29.98 "Hg11 mi
4:00 PM64 °FOvercast.6 mph81%29.98 "Hg13 mi
3:00 PM63 °FOvercast.7 mph84%29.98 "Hg9 mi
2:00 PM62 °FLight rain. Low clouds.5 mph94%29.99 "Hg2 mi
1:00 PM63 °FDrizzle. Overcast.6 mph78%30.00 "Hg11 mi
12:00 PM63 °FOvercast.5 mph76%30.00 "Hg12 mi
11:00 AM62 °FPartly sunny.6 mph76%30.00 "Hg10 mi
10:00 AM59 °FPartly sunny.5 mph86%30.02 "Hg8 mi
Weather by CustomWeather, © 2014

See weather overviewHow to use our weather pages